User: anonymous   Login
Location: Klickitat County Star Party
(45.8642°N, 120.6771°W)
Time: 19:31:55
(UTC-07:00)
Language:

NO-84 - Orbit

View from above orbital plane
View from above orbital plane
View from above satellite
View from above satellite

Ground track
Ground track

The orbit data is extracted from the following two-line orbital elements,

1 40654U 15025D   19135.07533560  .00009622  00000 0  14016-3 0  6158
2 40654  54.9912 330.5764 0136244 236.3204 122.4775 15.46486100107099
Epoch (UTC): 15 May 2019 01:48:28
Eccentricity: 0.0136244
inclination: 54.9912°
perigee height: 334 km
apogee height: 520 km
right ascension of ascending node: 330.5764°
argument of perigee: 236.3204°
revolutions per day: 15.46486100
mean anomaly at epoch: 122.4775°
orbit number at epoch: 10709

The dashed part of the orbit path shows where the satellite is in the earth's shadow,  

DLR